FW2734 Weather Reports


time (UTC)temp
F
wind
direction
speed
knots
gust
knots
rain 1hr
in
rain 24hr
in
rain mn
in
humidity
%
barometer
mb
20260504192051 52 0 0.0 1.7 0.00 0.25 0.25 92 1012.3
20260504191610 52 124 0.0 1.7 0.00 0.25 0.25 92 1012.2
20260504191048 52 96 0.0 1.7 0.00 0.25 0.25 92 1012.2
20260504190554 52 98 0.0 1.7 0.00 0.25 0.25 92 1012.1
20260504190100 52 0 0.0 1.7 0.00 0.25 0.25 92 1012.1
20260504185551 52 66 0.0 1.7 0.00 0.25 0.25 92 1012.1
20260504185050 52 0 0.0 1.7 0.00 0.25 0.25 92 1012.1
20260504184553 52 65 0.0 1.7 0.00 0.25 0.25 92 1012.1
20260504184052 52 0 0.0 2.6 0.00 0.25 0.25 92 1012.1
20260504183552 53 0 0.0 2.6 0.00 0.25 0.25 92 1012.1
20260504183050 53 78 0.0 2.6 0.00 0.25 0.25 92 1012.2
20260504182552 53 97 0.9 2.6 0.00 0.25 0.25 92 1012.2
20260504182051 53 75 0.0 1.7 0.00 0.25 0.25 92 1012.2
20260504181556 52 64 0.0 1.7 0.00 0.25 0.25 92 1012.2
20260504181051 52 77 0.0 1.7 0.00 0.25 0.25 92 1012.2
20260504180549 53 95 0.0 3.5 0.00 0.25 0.25 92 1012.2
20260504180055 53 95 0.9 3.5 0.00 0.25 0.25 92 1012.2
20260504175551 53 89 0.9 2.6 0.00 0.25 0.25 92 1012.3
20260504175048 53 68 0.9 1.7 0.00 0.25 0.25 92 1012.3
20260504174556 53 87 0.0 1.7 0.00 0.25 0.25 91 1012.2
20260504174051 53 42 0.0 2.6 0.00 0.25 0.25 91 1012.3
20260504173547 53 58 0.9 2.6 0.00 0.25 0.25 91 1012.4
20260504173058 53 51 0.0 2.6 0.01 0.25 0.25 91 1012.4
20260504172550 53 122 0.9 2.6 0.01 0.25 0.25 91 1012.4
20260504172050 53 144 0.0 1.7 0.01 0.25 0.25 91 1012.5
20260504171552 53 0 0.0 2.6 0.02 0.25 0.25 91 1012.5
20260504171052 53 169 0.0 2.6 0.02 0.25 0.25 91 1012.6
20260504170552 53 0 0.9 2.6 0.02 0.25 0.25 91 1012.7
20260504151051 54 134 1.7 4.3 0.03 0.19 0.19 89 1013.1
20260504150554 54 0 0.9 2.6 0.03 0.19 0.19 90 1013.0
20260504141051 55 153 0.9 3.5 0.01 0.16 0.16 87 1013.4
20260504140551 55 165 0.0 5.2 0.02 0.16 0.16 87 1013.4
20260504130553 56 193 1.7 3.5 0.00 0.14 0.14 84 1013.7
20260504120132 55 224 1.7 6.1 0.03 0.14 0.14 87 1013.8
20260504110554 54 184 1.7 4.3 0.10 0.11 0.11 90 1014.4
20260504100552 56 205 3.5 7.0 0.00 0.00 0.00 85 1014.1
20260504081554 57 0 0.0 1.7 0.00 0.00 0.00 80 1013.5
20260504081052 57 215 0.0 2.6 0.00 0.00 0.00 80 1013.6
20260504080552 57 0 0.0 2.6 0.00 0.00 0.00 81 1013.6
20260504050551 48 189 1.7 5.2 0.00 0.00 0.00 93 1013.0
20260504045553 46 0 0.0 2.6 0.00 0.00 0.00 92 1012.9
20260504045047 46 0 0.0 2.6 0.00 0.00 0.00 92 1012.9
20260504044554 46 0 0.9 2.6 0.00 0.00 0.00 92 1012.7
20260504044050 46 169 0.9 3.5 0.00 0.00 0.00 92 1012.7
20260504043550 46 155 0.9 4.3 0.00 0.00 0.00 92 1012.7
20260504043112 46 168 1.7 4.3 0.00 0.00 0.00 92 1012.7
20260504042550 45 175 2.6 4.3 0.00 0.00 0.00 92 1012.7
20260504042052 44 165 0.0 1.7 0.00 0.00 0.00 92 1012.7
20260504041549 44 0 0.0 0.0 0.00 0.00 0.00 92 1012.6
20260504041050 44 0 0.0 0.0 0.00 0.00 0.00 92 1012.6
20260504040553 44 0 0.0 0.0 0.00 0.00 0.00 92 1012.7
20260504040051 44 0 0.0 2.6 0.00 0.00 0.00 92 1012.7
20260504035553 45 0 0.0 3.5 0.00 0.00 0.00 91 1012.6
20260504035050 45 167 0.9 3.5 0.00 0.00 0.00 92 1012.7
20260504034554 45 171 1.7 2.6 0.00 0.00 0.00 92 1012.6
20260504034053 44 162 0.0 0.9 0.00 0.00 0.00 92 1012.7
20260504033550 44 0 0.0 1.7 0.00 0.00 0.00 91 1012.7
20260504033052 44 0 0.0 1.7 0.00 0.00 0.00 92 1012.7
20260504032550 44 0 0.0 0.0 0.00 0.00 0.00 91 1012.5
20260504032050 44 0 0.0 0.0 0.00 0.00 0.00 91 1012.5
20260504031556 43 0 0.0 0.0 0.00 0.00 0.00 91 1012.5
20260504031050 44 0 0.0 0.0 0.00 0.00 0.00 91 1012.6
20260504030550 44 0 0.0 0.0 0.00 0.00 0.00 91 1012.7
20260504030109 44 0 0.0 0.0 0.00 0.00 0.00 91 1012.7
20260504025550 44 0 0.0 0.0 0.00 0.00 0.00 91 1012.8
20260504025050 43 0 0.0 0.0 0.00 0.00 0.00 91 1012.8
20260504024553 43 0 0.0 0.0 0.00 0.00 0.00 91 1012.7
20260504024050 43 0 0.0 0.0 0.00 0.00 0.00 91 1012.9
20260504023550 43 0 0.0 0.0 0.00 0.00 0.00 91 1012.8
20260504023057 44 0 0.0 0.0 0.00 0.00 0.00 91 1012.9
20260504022551 44 0 0.0 0.0 0.00 0.00 0.00 91 1012.9
20260504022054 44 0 0.0 0.9 0.00 0.00 0.00 91 1012.9
20260504021552 44 0 0.0 1.7 0.00 0.00 0.00 91 1012.9
20260504021051 44 0 0.0 1.7 0.00 0.00 0.00 91 1012.9
20260504020552 44 0 0.0 2.6 0.00 0.00 0.00 90 1012.9
20260504020057 44 0 0.0 2.6 0.00 0.00 0.00 91 1013.0
20260504015549 45 163 0.9 1.7 0.00 0.00 0.00 91 1013.0
20260504015048 45 0 0.0 0.9 0.00 0.00 0.00 91 1013.1
20260504014554 45 0 0.0 0.0 0.00 0.00 0.00 90 1013.1
20260504014048 45 0 0.0 0.0 0.00 0.00 0.00 90 1013.0
20260504013554 45 0 0.0 0.0 0.00 0.00 0.00 91 1013.1
20260504013053 45 0 0.0 0.0 0.00 0.00 0.00 91 1013.1
20260504012548 45 0 0.0 0.0 0.00 0.00 0.00 90 1013.0
20260504012048 45 0 0.0 0.0 0.00 0.00 0.00 90 1013.0
20260504011553 45 0 0.0 0.0 0.00 0.00 0.00 90 1012.9
20260504011050 46 0 0.0 0.0 0.00 0.00 0.00 90 1013.0
20260504010550 46 0 0.0 1.7 0.00 0.00 0.00 90 1013.1
20260504010059 46 0 0.0 1.7 0.00 0.00 0.00 90 1013.1
20260504005550 47 0 0.0 1.7 0.00 0.00 0.00 90 1013.1
20260504005050 47 260 0.0 1.7 0.00 0.00 0.00 90 1013.1
20260504004551 47 269 0.0 1.7 0.00 0.00 0.00 90 1013.2
20260504004051 47 0 0.0 0.9 0.00 0.00 0.00 90 1013.1
20260504003550 46 0 0.0 3.5 0.00 0.00 0.00 90 1013.1
20260504003050 46 150 0.0 3.5 0.00 0.00 0.00 90 1013.0
20260504002550 46 172 1.7 3.5 0.00 0.00 0.00 90 1012.9
20260504002050 47 165 0.0 2.6 0.00 0.00 0.00 90 1012.9
20260504001558 47 0 0.0 0.9 0.00 0.00 0.00 90 1013.0
20260504001050 47 0 0.0 0.0 0.00 0.00 0.00 90 1013.1
20260504000549 47 0 0.0 0.0 0.00 0.00 0.00 89 1013.0
20260504000058 47 0 0.0 0.0 0.00 0.00 0.00 89 1013.0
20260503235549 47 0 0.0 0.0 0.00 0.00 0.00 89 1013.0
20260503235050 47 0 0.0 0.0 0.00 0.00 0.00 89 1013.0
20260503234553 47 0 0.0 0.0 0.00 0.00 0.00 89 1013.0
20260503234051 47 0 0.0 0.0 0.00 0.00 0.00 89 1013.0
20260503233550 47 0 0.0 0.0 0.00 0.00 0.00 89 1012.9
20260503233053 47 0 0.0 0.0 0.00 0.00 0.00 89 1012.9
20260503232555 47 0 0.0 0.0 0.00 0.00 0.00 89 1012.9
20260503232051 48 0 0.0 0.0 0.00 0.00 0.00 89 1013.0
20260503231555 48 0 0.0 0.0 0.00 0.00 0.00 89 1012.9
20260503231052 48 0 0.0 0.0 0.00 0.00 0.00 89 1012.9
20260503230552 48 0 0.0 0.9 0.00 0.00 0.00 89 1013.0
20260503230110 48 0 0.0 0.9 0.00 0.00 0.00 89 1013.1
20260503225552 48 0 0.0 1.7 0.00 0.00 0.00 89 1013.2
20260503225052 48 0 0.0 1.7 0.00 0.00 0.00 89 1013.3
20260503224607 48 0 0.9 1.7 0.00 0.00 0.00 89 1013.3
20260503224052 48 179 0.0 0.0 0.00 0.00 0.00 89 1013.2
20260503223552 48 0 0.0 0.0 0.00 0.00 0.00 88 1013.2
20260503223113 48 0 0.0 0.0 0.00 0.00 0.00 88 1013.2
20260503222551 48 0 0.0 0.0 0.00 0.00 0.00 88 1013.2
20260503222051 48 0 0.0 0.0 0.00 0.00 0.00 88 1013.2
20260503221556 48 0 0.0 0.0 0.00 0.00 0.00 88 1013.1
20260503221052 48 0 0.0 0.9 0.00 0.00 0.00 88 1013.0
20260503220553 49 0 0.0 0.9 0.00 0.00 0.00 88 1013.1
20260503220057 49 0 0.0 0.9 0.00 0.00 0.00 88 1013.1
20260503215551 49 0 0.0 0.9 0.00 0.00 0.00 88 1013.1
20260503215052 49 160 0.0 2.6 0.00 0.00 0.00 88 1013.0
20260503214600 49 173 0.0 2.6 0.00 0.00 0.00 88 1012.9
20260503214052 49 191 0.9 2.6 0.00 0.00 0.00 87 1013.1
20260503213552 49 165 0.0 1.7 0.00 0.00 0.00 87 1013.0
20260503213056 50 204 0.0 1.7 0.00 0.00 0.00 87 1013.0
20260503212552 50 0 0.9 1.7 0.00 0.00 0.00 87 1013.1
20260503212052 50 218 0.9 1.7 0.00 0.00 0.00 87 1013.0
20260503211608 51 243 0.0 1.7 0.00 0.00 0.00 86 1013.0
20260503211052 51 0 0.0 0.9 0.00 0.00 0.00 86 1013.1
20260503210553 51 0 0.0 1.7 0.00 0.00 0.00 86 1013.0
20260503210056 52 0 0.0 2.6 0.00 0.00 0.00 86 1013.1
20260503205552 52 240 0.9 4.3 0.00 0.00 0.00 85 1013.3
20260503205053 53 244 0.9 4.3 0.00 0.00 0.00 86 1013.3
20260503204558 53 245 1.7 3.5 0.00 0.00 0.00 86 1013.2
20260503204051 53 212 0.9 3.5 0.00 0.00 0.00 86 1013.0
20260503203552 53 252 0.0 4.3 0.00 0.00 0.00 86 1013.1
20260503203058 53 227 0.9 4.3 0.00 0.00 0.00 86 1013.0
20260503202551 53 173 0.9 4.3 0.00 0.00 0.00 86 1013.0
20260503202051 53 0 0.9 4.3 0.00 0.00 0.00 86 1013.0
20260503201552 54 229 1.7 6.1 0.00 0.00 0.00 85 1013.0
20260503201052 54 214 1.7 6.1 0.00 0.00 0.00 85 1013.0
20260503200550 54 237 0.9 4.3 0.00 0.00 0.00 85 1013.0
20260503200054 54 187 1.7 4.3 0.00 0.00 0.00 85 1013.0
20260503195548 54 190 0.9 4.3 0.00 0.00 0.00 85 1013.1
20260503195050 54 186 1.7 4.3 0.00 0.00 0.00 84 1013.1
20260503194619 54 198 0.9 3.5 0.00 0.00 0.00 84 1013.2
20260503194053 55 198 0.9 3.5 0.00 0.00 0.00 84 1013.2
20260503193550 55 196 0.9 4.3 0.00 0.00 0.00 84 1013.2
20260503193053 55 217 1.7 4.3 0.00 0.00 0.00 84 1013.3
20260503192548 54 195 2.6 4.3 0.00 0.00 0.00 84 1013.2